Regional Weather Roundup
Issued by NWS

Home | Current Version | Previous Version | Graphics & Text | Print | Product List | Glossary On
Versions: 1 2 3 4 5 6 7 8 9 10 11 12 13 14 15 16 17 18 19 20 21 22 23 24 25 26 27 28 29 30 31 32 33 34 35 36 37 38 39 40 41 42 43 44 45 46 47 48 49 50
000
ASUS45 KABQ 250510
RWRNM
NEW MEXICO REGIONAL WEATHER ROUNDUP
NATIONAL WEATHER SERVICE ALBUQUERQUE NM
1100 PM MDT WED MAY 24 2017

NOTE: "FAIR" MEANS FEW OR NO CLOUDS BELOW 12,000 FEET AGL WITH NO
       SIGNIFICANT WEATHER OR OBSTRUCTIONS TO VISION.

      THIS PRODUCT IS RELEASED AS TWO VERSIONS.  ONE VERSION NEAR
      THE TOP OF THE HOUR CONTAINING PRELIMINARY DATA FROM ALBUQUERQUE
      AND OTHER STATIONS.  A FINAL VERSION WITH ADDITIONAL DATA IS
      ISSUED ABOUT 10 MINUTES AFTER THE HOUR.

NMZ501-503-504-510>518-250600-
NORTHWEST PLATEAU/NORTHCENTRAL MOUNTAINS

CITY           SKY/WX    TMP DP  RH WIND       PRES   REMARKS
FARMINGTON     FAIR      69  24  18 SW16      29.74R
SANTA FE       FAIR      61  23  23 NW6       29.84S
TAOS           FAIR      52  19  28 SE3       29.90S

$$
NMZ402-403-502-505>509-250600-
WESTCENTRAL MOUNTAINS/SOUTHWEST MOUNTAINS

CITY           SKY/WX    TMP DP  RH WIND       PRES   REMARKS
GALLUP         FAIR      69  22  16 SW14      29.91R
GRANTS         FAIR      70  18  13 W21G26    29.93S
SILVER CITY    FAIR      60  19  20 N9        29.92R

$$
NMZ407-409-411-412-250600-
SOUTHERN DESERTS

CITY           SKY/WX    TMP DP  RH WIND       PRES   REMARKS
DEMING         FAIR      72  18  13 NW9       29.82R
ALAMOGORDO     FAIR      79  16   9 S7        29.78R
T OR C         FAIR      80  13   8 W14       29.80R

$$
NMZ519>523-250600-
CENTRAL VALLEYS/CENTRAL HIGHLANDS

CITY           SKY/WX    TMP DP  RH WIND       PRES   REMARKS
ALBUQUERQUE    FAIR      73  18  12 SW7       29.81R
DOUBLE EAGLE   FAIR      58  21  23 W10       29.84S
CLINES CORNERS FAIR      57  20  23 W9        29.92R
BELEN          NOT AVBL
SOCORRO        NOT AVBL

$$
NMZ524>526-539-540-250600-
SOUTHCENTRAL MOUNTAINS

CITY           SKY/WX    TMP DP  RH WIND       PRES   REMARKS
RUIDOSO        NOT AVBL

$$
NMZ527>531-250600-
NORTHEAST HIGHLANDS/NORTHEAST PLAINS

CITY           SKY/WX    TMP DP  RH WIND       PRES   REMARKS
LAS VEGAS      FAIR      62  23  22 W7        29.87S
RATON          FAIR      66  27  23 W7        29.78R
CLAYTON        FAIR      59  39  47 SW9       29.71S

$$
NMZ532>537-250600-
EASTCENTRAL PLAINS

CITY           SKY/WX    TMP DP  RH WIND       PRES   REMARKS
SANTA ROSA     FAIR      67  28  23 SW9       29.73R
TUCUMCARI      FAIR      66  46  48 NW9       29.63R
CANNON AFB     NOT AVBL
CLOVIS AIRPORT FAIR      59  39  47 SW8       29.71S

$$
NMZ028-029-538-250600-
SOUTHEAST PLAINS

CITY           SKY/WX    TMP DP  RH WIND       PRES   REMARKS
ROSWELL        FAIR      71  31  22 SW12      29.68F
ARTESIA        FAIR      72  30  21 SW14      29.70S
CARLSBAD       FAIR      72  35  25 S7        29.69S
HOBBS          FAIR      72  36  26 S12       29.75R


$$



USA.gov is the U.S. government's official web portal to all federal, state and local government web resources and services.